Toronto, Ontario

10:00 PM EST on January 21, 2018 (GMT -0500)
Toronto

Weather History for CYTZ - March, 2013

Change the Weather History Date:

Thursday, March 21, 2013

  Actual Average Record
Temperature  
Mean Temperature 26 °F -  
Max Temperature 32 °F 46 °F 60 °F (2012)
Min Temperature 21 °F 33 °F 19 °F (2002)
Degree Days  
Heating Degree Days 38    
Moisture  
Dew Point 23 °F    
Average Humidity 78    
Maximum Humidity 86    
Minimum Humidity 59    
Precipitation  
Precipitation 0.00 in 0.08 in - ()
Sea Level Pressure  
Sea Level Pressure 29.74 in    
Wind  
Wind Speed 14 mph ()    
Max Wind Speed 20 mph    
Max Gust Speed 23 mph    
Visibility 5.9 miles    
Events Snow    
Averages and records for this station are not official NWS values.
T = Trace of Precipitation, MM = Missing Value Source: Averaged Metar Reports

Daily Weather History Graph

Daily Weather History Graph

Search for Another Location

Airport or City:

Trip Planner

Search our weather history database for the weather conditions in past years. The results will help you decide how hot, cold, wet, or windy it might be!

Date:

Astronomy

Mar. 21, 2013 Rise Set
Actual Time 7:18 AM EDT 7:31 PM EDT
Civil Twilight 6:49 AM EDT 8:00 PM EDT
Nautical Twilight 6:16 AM EDT 8:33 PM EDT
Astronomical Twilight 5:42 AM EDT 9:08 PM EDT
Moon 1:50 PM EDT (3/21) 3:48 AM EDT (3/21)
Length of Visible Light 13h 10m
Length of Day
12h 12m
Waxing Gibbous, 68% of the Moon is Illuminated
Mar 21
Waxing Gibbous
Mar 27
Full
Apr 3
Last Quarter
Apr 10
New
Apr 18
First Quarter

Hourly Weather History & Observations

Time (EDT) Temp. Windchill Dew Point Humidity Pressure Visibility Wind Dir Wind Speed Gust Speed Precip Events Conditions
12:00 AM 23.0 °F 10.1 °F 15.8 °F 74% 29.84 in 9.0 mi West 15.0 mph - N/A   Clear
1:00 AM 23.0 °F 12.4 °F 15.8 °F 74% 29.83 in 9.0 mi West 10.4 mph 17.3 mph N/A   Clear
2:00 AM 22 °F - 16 °F 68% 29.82 in 10 mi West 12.7 mph - -  
3:00 AM 23.0 °F 11.1 °F 15.8 °F 74% 29.81 in 9.0 mi West 12.7 mph 19.6 mph N/A   Clear
4:00 AM 23.0 °F 11.7 °F 15.8 °F 74% 29.79 in 9.0 mi West 11.5 mph - N/A   Clear
5:00 AM 23.0 °F 10.6 °F 15.8 °F 74% 29.78 in 9.0 mi WSW 13.8 mph - N/A   Clear
6:00 AM 21.2 °F 7.8 °F 15.8 °F 80% 29.78 in 9.0 mi West 15.0 mph - N/A   Clear
7:00 AM 21.2 °F 8.3 °F 14.0 °F 74% 29.78 in 9.0 mi West 13.8 mph 20.7 mph N/A   Clear
8:00 AM 22 °F - 16 °F 68% 29.78 in 10 mi West 12.7 mph - -  
8:00 AM 23.0 °F 11.7 °F 15.8 °F 74% 29.78 in 9.0 mi West 11.5 mph 17.3 mph N/A   Clear
9:00 AM 23.0 °F 11.7 °F 15.8 °F 74% 29.78 in 9.0 mi WSW 11.5 mph - N/A   Clear
10:00 AM 26.6 °F 14.3 °F 14.0 °F 59% 29.77 in 9.0 mi West 16.1 mph - N/A   Clear
11:00 AM 28.4 °F 16.6 °F 17.6 °F 64% 29.76 in 9.0 mi WSW 16.1 mph - N/A   Mostly Cloudy
11:34 AM 28.4 °F 15.8 °F 17.6 °F 64% 29.75 in 9.0 mi West 18.4 mph - N/A Snow Light Snow
12:00 PM 28.4 °F 15.8 °F 17.6 °F 64% 29.76 in 9.0 mi WSW 18.4 mph - N/A Snow Light Snow
12:08 PM 28.4 °F 16.2 °F 19.4 °F 69% 29.76 in 5.0 mi West 17.3 mph - N/A Snow Light Snow
12:12 PM 26.6 °F 14.7 °F 19.4 °F 74% 29.76 in 3.0 mi WSW 15.0 mph 20.7 mph N/A Snow Light Snow
12:27 PM 26.6 °F 14.7 °F 23.0 °F 86% 29.76 in 2.5 mi WSW 15.0 mph - N/A Snow Light Snow
12:41 PM 26.6 °F 14.7 °F 23.0 °F 86% 29.76 in 2.5 mi WSW 15.0 mph 21.9 mph N/A Snow Light Snow
12:43 PM 26.6 °F 14.3 °F 23.0 °F 86% 29.76 in 3.0 mi WSW 16.1 mph - N/A Snow Light Snow
12:52 PM 26.6 °F 13.8 °F 23.0 °F 86% 29.76 in 3.0 mi WSW 17.3 mph - N/A Snow Light Snow
12:59 PM 26.6 °F 14.3 °F 21.2 °F 80% 29.76 in 3.0 mi SW 16.1 mph - N/A Snow Light Snow
1:00 PM 26.6 °F 13.8 °F 23.0 °F 86% 29.76 in 3.0 mi WSW 17.3 mph - N/A Snow Light Snow
1:01 PM 26.6 °F 13.8 °F 23.0 °F 86% 29.76 in 3.0 mi WSW 17.3 mph - N/A Snow Light Snow
1:05 PM 26.6 °F 13.8 °F 23.0 °F 86% 29.76 in 3.0 mi WSW 17.3 mph - N/A Snow Light Snow
1:07 PM 26.6 °F 13.8 °F 23.0 °F 86% 29.76 in 3.0 mi WSW 17.3 mph - N/A Snow Light Snow
1:08 PM 26.6 °F 13.8 °F 23.0 °F 86% 29.76 in 3.0 mi WSW 17.3 mph - N/A Snow Light Snow
1:11 PM 26.6 °F 13.8 °F 23.0 °F 86% 29.76 in 2.2 mi WSW 17.3 mph - N/A Snow Light Snow
1:14 PM 26.6 °F 13.1 °F 21.2 °F 80% 29.75 in 2.5 mi WSW 19.6 mph - N/A Snow Light Snow
1:17 PM 26.6 °F 13.8 °F 23.0 °F 86% 29.75 in 3.0 mi WSW 17.3 mph - N/A Snow Light Snow
1:22 PM 26.6 °F 14.3 °F 23.0 °F 86% 29.75 in 3.0 mi SW 16.1 mph 23.0 mph N/A Snow Light Snow
1:31 PM 28.4 °F 16.6 °F 23.0 °F 80% 29.75 in 5.0 mi SW 16.1 mph - N/A Snow Light Snow
1:33 PM 28.4 °F 16.6 °F 23.0 °F 80% 29.75 in 6.0 mi SW 16.1 mph - N/A Snow Light Snow
1:36 PM 28.4 °F 16.2 °F 23.0 °F 80% 29.75 in 5.0 mi SW 17.3 mph - N/A Snow Light Snow
1:45 PM 28.4 °F 16.6 °F 23.0 °F 80% 29.75 in 2.5 mi SW 16.1 mph - N/A Snow Light Snow
1:58 PM 28.4 °F 16.2 °F 23.0 °F 80% 29.74 in 3.0 mi SW 17.3 mph - N/A Snow Light Snow
2:00 PM 28 °F - 23 °F 76% 29.74 in 3 mi SW 16.1 mph - - Snow Light Snow
2:00 PM 28.4 °F 16.6 °F 23.0 °F 80% 29.74 in 3.0 mi SW 16.1 mph - N/A Snow Light Snow
2:07 PM 28.4 °F 16.2 °F 23.0 °F 80% 29.74 in 6.0 mi SW 17.3 mph - N/A Snow Light Snow
2:11 PM 30.2 °F 18.5 °F 23.0 °F 75% 29.73 in 7.0 mi WSW 17.3 mph - N/A Snow Light Snow
2:17 PM 28.4 °F 15.4 °F 23.0 °F 80% 29.73 in 6.0 mi SW 19.6 mph - N/A Snow Light Snow
2:27 PM 30.2 °F 18.5 °F 23.0 °F 75% 29.73 in 5.0 mi SW 17.3 mph - N/A Snow Light Snow
2:29 PM 30.2 °F 18.1 °F 24.8 °F 80% 29.73 in 5.0 mi SW 18.4 mph - N/A Snow Light Snow
2:33 PM 30.2 °F 18.5 °F 23.0 °F 75% 29.73 in 4.0 mi SW 17.3 mph - N/A Snow Light Snow
2:41 PM 30.2 °F 19.8 °F 23.0 °F 75% 29.73 in 6.0 mi SW 13.8 mph 20.7 mph N/A Snow Light Snow
2:45 PM 30.2 °F 18.9 °F 23.0 °F 75% 29.73 in 9.0 mi SW 16.1 mph - N/A Snow Light Snow
3:00 PM 30.2 °F 18.9 °F 23.0 °F 75% 29.73 in 9.0 mi SW 16.1 mph - N/A Snow Light Snow
3:01 PM 30.2 °F 19.3 °F 23.0 °F 75% 29.73 in 9.0 mi SW 15.0 mph - N/A   Overcast
3:09 PM 30.2 °F 19.3 °F 23.0 °F 75% 29.72 in 9.0 mi SW 15.0 mph - N/A Snow Light Snow
3:37 PM 32.0 °F 21.6 °F 23.0 °F 69% 29.72 in 9.0 mi SW 15.0 mph - N/A Snow Light Snow
3:48 PM 32.0 °F 21.2 °F 23.0 °F 69% 29.72 in 7.0 mi SW 16.1 mph - N/A Snow Light Snow
3:59 PM 32.0 °F 21.6 °F 23.0 °F 69% 29.71 in 9.0 mi WSW 15.0 mph - N/A   Overcast
4:00 PM 32.0 °F 21.6 °F 24.8 °F 75% 29.71 in 9.0 mi WSW 15.0 mph - N/A   Overcast
4:06 PM 32.0 °F 22.1 °F 23.0 °F 69% 29.71 in 9.0 mi SW 13.8 mph 19.6 mph N/A Snow Light Snow
4:10 PM 32.0 °F 20.8 °F 24.8 °F 75% 29.71 in 5.0 mi WSW 17.3 mph - N/A Snow Light Snow
4:34 PM 32.0 °F 22.1 °F 24.8 °F 75% 29.71 in 6.0 mi WSW 13.8 mph - N/A Snow Light Snow
4:41 PM 32.0 °F 21.2 °F 24.8 °F 75% 29.71 in 7.0 mi WSW 16.1 mph - N/A Snow Light Snow
4:42 PM 32.0 °F 20.8 °F 24.8 °F 75% 29.71 in 7.0 mi WSW 17.3 mph - N/A Snow Light Snow
4:44 PM 32.0 °F 20.8 °F 24.8 °F 75% 29.71 in 7.0 mi West 17.3 mph - N/A Snow Light Snow
4:48 PM 32.0 °F 22.1 °F 24.8 °F 75% 29.71 in 5.0 mi West 13.8 mph 21.9 mph N/A Snow Light Snow
4:53 PM 32.0 °F 22.1 °F 26.6 °F 80% 29.71 in 4.0 mi West 13.8 mph 20.7 mph N/A Snow Light Snow
4:56 PM 32.0 °F 21.2 °F 24.8 °F 75% 29.71 in 4.0 mi West 16.1 mph - N/A Snow Light Snow
4:58 PM 32.0 °F 21.2 °F 24.8 °F 75% 29.71 in 6.0 mi West 16.1 mph - N/A Snow Light Snow
4:59 PM 32.0 °F 21.2 °F 24.8 °F 75% 29.71 in 7.0 mi West 16.1 mph - N/A Snow Light Snow
5:00 PM 32.0 °F 20.8 °F 24.8 °F 75% 29.71 in 5.0 mi West 17.3 mph - N/A Snow Light Snow
5:06 PM 32.0 °F 20.5 °F 26.6 °F 80% 29.71 in 2.2 mi WNW 18.4 mph - N/A Snow Light Snow
5:08 PM 30.2 °F 18.9 °F 26.6 °F 86% 29.72 in 1.5 mi NW 16.1 mph 23.0 mph N/A Snow Light Snow
5:13 PM 30.2 °F 20.2 °F 26.6 °F 86% 29.72 in 0.8 mi NNW 12.7 mph 21.9 mph N/A Snow Light Snow
5:18 PM 30.2 °F 22.6 °F 26.6 °F 86% 29.72 in 1.0 mi NNW 8.1 mph 19.6 mph N/A Snow Light Snow
5:32 PM 30.2 °F 21.9 °F 26.6 °F 86% 29.72 in 2.2 mi NW 9.2 mph 18.4 mph N/A Snow Light Snow
5:34 PM 30.2 °F 24.3 °F 26.6 °F 86% 29.72 in 3.0 mi WNW 5.8 mph - N/A Snow Light Snow
5:37 PM 30.2 °F 23.4 °F 26.6 °F 86% 29.72 in 6.0 mi WNW 6.9 mph - N/A Snow Light Snow
5:41 PM 30.2 °F 21.9 °F 26.6 °F 86% 29.72 in 9.0 mi WNW 9.2 mph - N/A Snow Light Snow
5:46 PM 30.2 °F 20.2 °F 24.8 °F 80% 29.73 in 9.0 mi WNW 12.7 mph - N/A   Overcast
5:52 PM 30.2 °F 19.8 °F 24.8 °F 80% 29.73 in 9.0 mi WNW 13.8 mph - N/A Snow Light Snow
6:00 PM 30.2 °F 21.9 °F 24.8 °F 80% 29.73 in 6.0 mi West 9.2 mph 18.4 mph N/A Snow Light Snow
6:02 PM 30.2 °F 21.9 °F 24.8 °F 80% 29.73 in 5.0 mi West 9.2 mph 18.4 mph N/A Snow Light Snow
6:09 PM 30.2 °F 21.3 °F 24.8 °F 80% 29.73 in 6.0 mi WNW 10.4 mph - N/A Snow Light Snow
6:20 PM 30.2 °F 21.3 °F 24.8 °F 80% 29.73 in 9.0 mi WNW 10.4 mph - N/A   Overcast
6:25 PM 30.2 °F 21.3 °F 24.8 °F 80% 29.73 in 9.0 mi West 10.4 mph - N/A Snow Light Snow
6:49 PM 30.2 °F 19.8 °F 26.6 °F 86% 29.73 in 4.0 mi West 13.8 mph - N/A Snow Light Snow
6:53 PM 30.2 °F 19.8 °F 26.6 °F 86% 29.74 in 2.5 mi NW 13.8 mph - N/A Snow Light Snow
6:59 PM 30.2 °F 21.3 °F 24.8 °F 80% 29.75 in 2.0 mi NW 10.4 mph 19.6 mph N/A Snow Light Snow
7:00 PM 30.2 °F 20.8 °F 24.8 °F 80% 29.75 in 2.0 mi NW 11.5 mph 19.6 mph N/A Snow Light Snow
7:04 PM 30.2 °F 20.2 °F 24.8 °F 80% 29.75 in 3.0 mi WNW 12.7 mph 18.4 mph N/A Snow Light Snow
7:10 PM 30.2 °F 20.2 °F 23.0 °F 75% 29.74 in 6.0 mi WNW 12.7 mph 18.4 mph N/A Snow Light Snow
8:00 PM 29 °F - 24 °F 76% 29.75 in 6 mi WNW 10.4 mph - - Snow Light Snow
8:00 PM 30.2 °F 20.8 °F 24.8 °F 80% 29.75 in 6.0 mi WNW 11.5 mph - N/A Snow Light Snow
8:01 PM 28.4 °F 18.5 °F 24.8 °F 86% 29.75 in 5.0 mi WNW 11.5 mph - N/A Snow Light Snow
8:28 PM 28.4 °F 18.5 °F 24.8 °F 86% 29.76 in 7.0 mi NW 11.5 mph - N/A Snow Light Snow
8:47 PM 28.4 °F 18.0 °F 23.0 °F 80% 29.76 in 9.0 mi WNW 12.7 mph 19.6 mph N/A   Overcast
9:00 PM 28.4 °F 17.0 °F 21.2 °F 74% 29.76 in 9.0 mi WNW 15.0 mph - N/A   Mostly Cloudy
10:00 PM 28.4 °F 17.5 °F 17.6 °F 64% 29.77 in 9.0 mi WNW 13.8 mph 19.6 mph N/A   Mostly Cloudy
11:00 PM 28.4 °F 18.0 °F 21.2 °F 74% 29.78 in 9.0 mi WNW 12.7 mph - N/A   Overcast